Weather History for Lafayette, IN

Change the Weather History Date:

Sunday, January 6, 2013

  Actual Average Record
Temperature  
Mean Temperature 29 °F 26 °F  
Max Temperature 35 °F 34 °F 62 °F (2008)
Min Temperature 22 °F 19 °F -13 °F (2014)
Degree Days  
Heating Degree Days 36 39  
Month to date heating degree days 260 230  
Since 1 July heating degree days 2455 2405  
Moisture  
Dew Point 24 °F    
Average Humidity 80    
Maximum Humidity 88    
Minimum Humidity 72    
Precipitation  
Precipitation 0.00 in 0.07 in 0.53 in (1962)
Month to date precipitation T 0.40  
Year to date precipitation T 0.40  
Sea Level Pressure  
Sea Level Pressure 30.13 in    
Wind  
Wind Speed 9 mph (West)    
Max Wind Speed 28 mph    
Max Gust Speed 32 mph    
Visibility 9 miles    
Events      
T = Trace of Precipitation, MM = Missing Value Source: NWS Daily Summary

Daily Weather History Graph

Daily Weather History Graph

Search for Another Location

Airport:

Trip Planner

Search our weather history database for the weather conditions in past years. The results will help you decide how hot, cold, wet, or windy it might be!

Date:

Astronomy

Jan. 06, 2013 Rise Set
Actual Time 8:10 AM EST 5:36 PM EST
Civil Twilight 7:40 AM EST 6:07 PM EST
Nautical Twilight 7:06 AM EST 6:41 PM EST
Astronomical Twilight 6:33 AM EST 7:14 PM EST
Moon 2:24 AM EST (1/6) 1:04 PM EST (1/6)
Length of Visible Light 10h 26m
Length of Day
9h 25m
Waning Crescent, 33% of the Moon is Illuminated
Jan 6
Waning Crescent
Jan 11
New
Jan 18
First Quarter
Jan 26
Full
Feb 3
Last Quarter

Hourly Weather History & Observations

Time (EST) Temp. Windchill Dew Point Humidity Pressure Visibility Wind Dir Wind Speed Gust Speed Precip Events Conditions
12:54 AM 34.0 °F 27.2 °F 28.0 °F 79% 30.07 in 10.0 mi SW 8.1 mph - N/A   Overcast
1:54 AM 34.0 °F 28.0 °F 28.0 °F 79% 30.05 in 10.0 mi SW 6.9 mph - N/A   Overcast
2:54 AM 35.1 °F 27.9 °F 28.0 °F 76% 30.04 in 10.0 mi SW 9.2 mph - N/A   Overcast
3:54 AM 35.1 °F 29.3 °F 28.0 °F 76% 30.03 in 10.0 mi SW 6.9 mph - N/A   Overcast
4:54 AM 35.1 °F 29.3 °F 28.9 °F 78% 30.01 in 10.0 mi WSW 6.9 mph - N/A   Overcast
5:04 AM 35.6 °F 28.6 °F 28.4 °F 75% 29.99 in 10.0 mi WSW 9.2 mph - N/A   Overcast
5:54 AM 35.1 °F 27.9 °F 28.9 °F 78% 30.00 in 10.0 mi WSW 9.2 mph - N/A   Overcast
6:54 AM 35.1 °F 27.9 °F 28.9 °F 78% 30.01 in 10.0 mi WSW 9.2 mph - N/A   Overcast
7:44 AM 35.6 °F 28.0 °F 28.4 °F 75% 30.00 in 10.0 mi West 10.4 mph - N/A   Overcast
7:54 AM 35.1 °F 27.9 °F 28.9 °F 78% 30.01 in 10.0 mi West 9.2 mph - N/A   Overcast
8:25 AM 30.2 °F 17.4 °F 26.6 °F 86% 30.01 in 10.0 mi WNW 20.7 mph 31.1 mph N/A   Overcast
8:49 AM 30.2 °F 19.8 °F 23.0 °F 75% 30.03 in 10.0 mi WNW 13.8 mph 25.3 mph N/A   Overcast
8:54 AM 30.0 °F 18.7 °F 23.0 °F 75% 30.05 in 10.0 mi West 16.1 mph 25.3 mph N/A   Overcast
9:54 AM 27.0 °F 15.6 °F 21.0 °F 78% 30.08 in 10.0 mi WNW 13.8 mph 20.7 mph N/A   Overcast
10:54 AM 26.1 °F 13.6 °F 19.0 °F 75% 30.11 in 8.0 mi WNW 16.1 mph - N/A   Overcast
11:54 AM 25.0 °F 12.2 °F 18.0 °F 75% 30.12 in 7.0 mi WNW 16.1 mph 29.9 mph N/A   Overcast
12:54 PM 25.0 °F 10.9 °F 18.0 °F 75% 30.12 in 6.0 mi WNW 19.6 mph - N/A   Haze
1:54 PM 25.0 °F 13.1 °F 19.0 °F 78% 30.14 in 6.0 mi WNW 13.8 mph 26.5 mph N/A   Haze
2:54 PM 26.1 °F 15.6 °F 19.0 °F 75% 30.17 in 7.0 mi WNW 11.5 mph - N/A   Overcast
3:54 PM 27.0 °F 16.1 °F 19.9 °F 75% 30.22 in 8.0 mi WNW 12.7 mph - N/A   Overcast
4:54 PM 28.0 °F 20.0 °F 21.0 °F 75% 30.25 in 9.0 mi West 8.1 mph - N/A   Overcast
5:54 PM 28.0 °F 21.7 °F 21.9 °F 78% 30.28 in 10.0 mi West 5.8 mph - N/A   Overcast
7:54 PM 27.0 °F 21.6 °F 21.0 °F 78% 30.35 in 10.0 mi WSW 4.6 mph - N/A   Overcast
8:54 PM 26.1 °F 21.9 °F 21.0 °F 81% 30.35 in 10.0 mi West 3.5 mph - N/A   Overcast
10:54 PM 23.0 °F 18.4 °F 19.0 °F 85% 30.39 in 10.0 mi WSW 3.5 mph - N/A   Overcast
11:54 PM 21.9 °F - 19.0 °F 89% 30.39 in 10.0 mi Calm Calm - N/A   Overcast